CAS-4B
1 42759U 17034B 24270.64789877 .00039230 00000-0 11671-2 0 9998
2 42759 43.0172 10.9981 0013272 312.0209 47.9515 15.33987058402956
CAS-4A
1 42761U 17034D 24270.63980839 .00037687 00000-0 11148-2 0 9994
2 42761 43.0209 9.3035 0013079 323.0507 36.9446 15.34185861402965
D-SAT
1 42794U 17036AF 24270.40933950 .00012780 00000-0 83943-3 0 9999
2 42794 97.4898 248.7401 0106926 162.4940 198.0017 15.03087642395941
TechnoSat
1 42829U 17042E 24270.76879930 .00008682 00000-0 73834-3 0 9995
2 42829 97.3879 86.2601 0013635 92.8937 267.3847 14.97987041392370
AO-91
1 43017U 17073E 24270.61404518 .00018866 00000-0 11068-2 0 9994
2 43017 97.5605 142.6087 0200078 314.3733 44.1248 14.96438631370815
TianYi 6
1 43158U 18008D 24270.87345720 .00405004 00000-0 23352-2 0 9999
2 43158 97.2463 321.3201 0002915 137.5382 222.6111 15.77561438370307
S-Net D
1 43186U 18014G 24270.28755738 .00013457 00000-0 91436-3 0 9992
2 43186 97.5769 170.4010 0011265 32.3699 327.8217 15.06435987363715
S-Net B
1 43187U 18014H 24270.68892972 .00011973 00000-0 81405-3 0 9995
2 43187 97.5773 170.7532 0011850 26.3990 333.7839 15.06434073363777
S-Net A
1 43188U 18014J 24270.68715412 .00012157 00000-0 82621-3 0 9995
2 43188 97.5778 170.8727 0011739 26.8804 333.3029 15.06446221363770
S-Net C
1 43189U 18014K 24270.29244642 .00012874 00000-0 87473-3 0 9991
2 43189 97.5792 170.4527 0013193 20.6945 339.4813 15.06427240362266
Ten-Koh
1 43677U 18084G 24270.43485674 .00008153 00000-0 70672-3 0 9996
2 43677 98.0750 67.1007 0013745 44.1544 316.0771 14.97298357321861
PO-101
1 43678U 18084H 24270.83262339 .00003933 00000-0 35521-3 0 9997
2 43678 98.0837 71.9236 0009694 57.8018 302.4141 14.96068060322114
QO-100
1 43700U 18090A 24270.67861073 .00000128 00000-0 00000+0 0 9995
2 43700 0.0165 150.1414 0001206 64.5843 61.3376 1.00274454 21616
MinXSS-2
1 43758U 18099A 24270.18122357 .00026074 00000-0 14821-2 0 9995
2 43758 97.5432 331.1668 0014218 334.3986 25.6539 15.12780616318031
AO-95
1 43770U 18099N 24270.09773034 .00019027 00000-0 12159-2 0 9995
2 43770 97.5350 325.9024 0013038 25.2239 334.9624 15.08606262317766
RANGE-B
1 43772U 18099Q 24270.72509969 .00027838 00000-0 15193-2 0 9991
2 43772 97.5135 330.4449 0004077 270.7446 89.3318 15.14300163318064
RANGE-A
1 43773U 18099R 24269.89086854 .00012254 00000-0 88540-3 0 9994
2 43773 97.4909 319.9352 0012172 356.5045 3.6094 15.04145979317566
MOVE-II
1 43780U 18099Y 24269.75813492 .00050491 00000-0 21285-2 0 9990
2 43780 97.5094 332.2011 0004235 353.9626 6.1559 15.23136374318191
SNUSat 2
1 43782U 18099AA 24270.11179412 .00015170 00000-0 10040-2 0 9993
2 43782 97.5025 324.5025 0012863 321.1799 38.8504 15.07364704317766
SnugLite
1 43784U 18099AC 24270.11035959 .00018759 00000-0 11928-2 0 9994
2 43784 97.4843 323.7973 0003192 339.8939 20.2163 15.08856801317845
ITASat 1
1 43786U 18099AE 24270.83555807 .00014503 00000-0 98132-3 0 9990
2 43786 97.5000 325.3092 0016306 10.8898 349.2679 15.06514796317864
EAGLET 1
1 43790U 18099AJ 24270.13056038 .00009773 00000-0 70068-3 0 9991
2 43790 97.5175 325.0973 0012744 353.3710 6.7345 15.04492874317446
ESEO
1 43792U 18099AL 24270.13241141 .00004713 00000-0 37843-3 0 9997
2 43792 97.5014 321.2821 0006566 331.5078 28.5787 15.00500684317335
CSIM
1 43793U 18099AM 24270.42611359 .00052417 00000-0 22381-2 0 9996
2 43793 97.5204 334.6599 0009241 318.1098 41.9430 15.22662743318146
JO-97
1 43803U 18099AX 24270.83718779 .00020675 00000-0 12522-2 0 9994
2 43803 97.5095 327.3864 0007888 318.2417 41.8210 15.10594124318027
Suomi 100
1 43804U 18099AY 24270.88291037 .00017410 00000-0 10859-2 0 9997
2 43804 97.5168 327.1876 0013292 316.7491 43.2693 15.09511512318008
ISAT
1 43879U 18111D 24270.64772917 .00026250 00000-0 14176-2 0 9997
2 43879 97.6063 176.0591 0013263 24.3855 335.8001 15.14621612312730
UWE-4
1 43880U 18111E 24270.18189152 .00025821 00000-0 14508-2 0 9993
2 43880 97.5988 175.3333 0016995 31.1984 329.0252 15.13161222312689
Sparrow
1 43881U 18111F 24270.58176316 .00027247 00000-0 14471-2 0 9999
2 43881 97.6162 178.1032 0012172 60.2070 300.0370 15.15218246312810
Prox-1
1 44339U 19036A 24270.71209410 .00020441 00000-0 32789-2 0 9993
2 44339 23.9992 290.7724 0008018 61.4333 298.6968 14.70165449280275
SONATE
1 44400U 19038Q 24270.49502521 .00043895 00000-0 10522-2 0 9997
2 44400 97.7165 269.6047 0017552 103.1986 257.1219 15.41119556289645
Taurus 1
1 44530U 19059C 24270.84441528 .00017398 00000-0 37835-2 0 9997
2 44530 98.5836 33.9210 0010698 108.5588 251.6773 14.58026274266569
Duchifat 3
1 44854U 19089C 24270.83227038 .00033936 00000-0 14569-2 0 9991
2 44854 36.9534 149.6882 0008870 257.9996 101.9758 15.21809185263669
TO-108
1 44881U 19093C 24270.78899544 .00002825 00000-0 34276-3 0 9998
2 44881 97.8206 345.6048 0013918 356.1460 3.9645 14.84283343258110
FloripaSat 1
1 44885U 19093G 24270.81016405 .00012164 00000-0 11916-2 0 9995
2 44885 97.8352 352.7148 0011300 342.3217 17.7607 14.92370837258515
RS-44
1 44909U 19096E 24270.59084175 .00000036 00000-0 96269-4 0 9990
2 44909 82.5239 37.3764 0217732 173.8679 186.5169 12.79734237221994
UPMSat 2
1 46276U 20061E 24270.63659796 .00034022 00000-0 86300-3 0 9991
2 46276 97.2860 335.9926 0002548 124.9490 235.1995 15.39609629225759
AmicalSat
1 46287U 20061R 24269.60962146 .00106258 00000-0 18986-2 0 9999
2 46287 97.3357 337.5826 0002940 199.3270 160.7871 15.49642849225048
SALSAT
1 46495U 20068K 24270.44920170 .00017627 00000-0 93000-3 0 9994
2 46495 97.8273 232.4989 0012089 337.4166 22.6532 15.15552496219637
UVSQ-SAT
1 47438U 21006AB 24270.60816311 .00289934 00000-0 19344-2 0 9994
2 47438 97.3068 333.8317 0006397 205.6139 154.4810 15.74502962204527
SOMP 2b
1 47445U 21006AJ 24270.62364863 .00165101 00000-0 16939-2 0 9990
2 47445 97.3041 331.2949 0006588 203.1490 156.9473 15.64383746204397
IDEASSat
1 47458U 21006AX 24270.60626502 .00119051 00000-0 15859-2 0 9996
2 47458 97.3166 331.3421 0006283 202.5547 157.5433 15.57711545204288
CubeSX-Sirius-HSE
1 47951U 21022V 24270.83283937 .00046758 00000-0 14689-2 0 9991
2 47951 97.4443 169.3038 0014874 127.0978 233.1626 15.32742990194107
CubeSX-HSE
1 47952U 21022W 24270.84173511 .00047047 00000-0 14669-2 0 9999
2 47952 97.4444 169.4287 0014945 126.4422 233.8200 15.32980791194111
KSU-Cubesat
1 47954U 21022Y 24270.25973435 .00074402 00000-0 19825-2 0 9993
2 47954 97.4451 170.7440 0014118 120.3516 239.9127 15.37798153193866
GRBAlpha
1 47959U 21022AD 24270.86590980 .00050122 00000-0 15593-2 0 9996
2 47959 97.4445 169.6174 0014715 126.3113 233.9490 15.33039291192949
Orbicraft-Zorkiy
1 47960U 21022AE 24270.82807551 .00060480 00000-0 16985-2 0 9993
2 47960 97.4486 171.2970 0014167 122.0368 238.2253 15.36226861193710
TUBIN
1 48900U 21059X 24270.85155965 .00035057 00000-0 10089-2 0 9997
2 48900 97.6577 58.8895 0006160 91.8030 268.3918 15.35678166180498
LEDSAT
1 49069U 21073D 24270.67390046 .00036558 00000-0 12288-2 0 9991
2 49069 97.4273 341.4355 0015953 282.6071 77.3386 15.30610720171947
